Total_Precipitation_Accumulation
0.05 0.08 0.15 0.23 0.22 0.16 0.12 0.10 0.13 0.17 0.31 0.52 0.73 0.86 0.96 1.01 1.05 0.95 0.90 0.94 0.98 1.11 1.25 1.35 1.45 1.43 1.41 1.50 1.58 1.78 2.16 2.38 2.55 2.58 2.61 2.71 2.76 2.73 2.76 2.70 2.60 2.81 2.88 2.85
0.06 0.08 0.10 0.14 0.18 0.15 0.12 0.12 0.15 0.19 0.35 0.51 0.77 0.84 0.93 0.93 0.98 0.97 1.04 1.13 1.24 1.31 1.39 1.44 1.52 1.63 1.68 1.71 1.83 2.04 2.50 2.86 3.00 3.04 3.06 3.07 3.09 3.07 3.08 3.02 3.14 3.18 3.03 2.96
0.08 0.10 0.13 0.18 0.17 0.17 0.16 0.16 0.21 0.28 0.41 0.55 0.73 0.94 1.04 0.94 0.84 0.90 1.02 1.12 1.21 1.35 1.48 1.56 1.66 1.75 1.89 1.99 2.11 2.28 2.56 2.79 2.89 2.98 3.06 3.21 3.21 3.18 3.15 3.15 3.19 3.19 3.26 3.22
0.15 0.17 0.26 0.24 0.25 0.27 0.26 0.28 0.32 0.45 0.60 0.69 0.76 0.88 0.94 0.84 0.86 0.93 1.03 1.14 1.24 1.32 1.54 1.71 1.88 2.12 2.41 2.57 2.71 2.71 2.79 2.95 3.04 3.00 3.03 3.08 3.06 2.95 2.96 3.09 3.11 3.07 3.02 2.97
0.29 0.30 0.30 0.32 0.37 0.39 0.41 0.53 0.59 0.72 0.86 0.98 0.99 0.98 1.11 1.02 0.99 1.07 1.21 1.36 1.55 1.75 1.86 1.94 2.04 2.21 2.45 2.75 2.94 2.96 2.84 2.93 3.06 3.15 3.25 3.15 3.07 3.05 3.08 3.14 3.04 2.99 2.95 2.97
0.42 0.47 0.52 0.49 0.51 0.49 0.56 0.99 0.90 0.98 1.11 1.23 1.35 1.67 1.67 1.39 1.42 1.37 1.35 1.49 1.67 1.86 1.97 1.98 2.10 2.19 2.31 2.52 2.65 2.74 2.78 2.91 3.03 3.14 3.32 3.42 3.37 3.40 3.34 3.25 3.19 3.17 3.12 3.11
0.53 0.61 0.64 0.57 0.53 0.61 1.11 1.56 1.31 1.26 1.34 1.46 1.63 1.72 1.65 1.50 1.57 1.57 1.42 1.41 1.46 1.53 1.69 1.78 1.86 1.99 2.19 2.29 2.28 2.38 2.49 2.55 2.73 2.98 3.22 3.38 3.48 3.49 3.50 3.41 3.32 3.12 2.95 2.91
0.79 1.00 1.12 0.76 0.67 1.05 1.47 1.45 1.57 1.49 1.51 1.61 1.67 1.71 1.74 1.73 1.70 1.60 1.49 1.38 1.39 1.48 1.60 1.69 1.86 2.16 2.38 2.37 2.33 2.36 2.47 2.61 2.76 2.99 3.09 3.14 3.26 3.32 3.48 3.45 3.34 3.23 2.98 2.77
1.24 1.40 1.26 0.94 1.01 1.14 1.19 1.41 1.51 1.56 1.62 1.67 1.62 1.59 1.52 1.49 1.53 1.59 1.48 1.45 1.40 1.44 1.57 1.80 2.06 2.34 2.59 2.59 2.61 2.66 2.71 2.81 2.90 2.99 3.09 3.18 3.26 3.26 3.28 3.27 3.11 2.99 2.82 2.70
1.55 1.72 1.51 1.27 1.21 1.25 1.32 1.46 1.59 1.72 1.85 1.83 1.67 1.50 1.50 1.51 1.50 1.57 1.54 1.48 1.45 1.48 1.60 1.81 1.95 2.08 2.33 2.50 2.55 2.73 2.75 2.69 2.69 2.70 2.78 2.87 2.99 3.03 2.99 2.91 2.85 2.77 2.66 2.59
1.94 2.13 1.96 1.72 1.52 1.50 1.55 1.78 1.95 1.93 1.90 1.82 1.79 1.73 1.78 1.75 1.63 1.56 1.54 1.58 1.58 1.63 1.74 1.79 1.82 1.88 2.01 2.22 2.39 2.60 2.74 2.75 2.79 2.79 2.84 2.90 2.97 3.05 2.93 2.78 2.76 2.66 2.53 2.57
2.30 2.20 2.27 2.13 1.75 1.70 1.75 1.91 2.02 1.96 1.96 2.00 2.00 1.92 1.78 1.70 1.63 1.60 1.61 1.66 1.74 1.83 1.86 1.87 1.85 1.94 2.06 2.25 2.50 2.77 2.78 2.69 2.73 2.81 2.91 3.00 3.05 3.07 3.12 2.83 2.74 2.60 2.51 2.46
1.93 2.00 2.07 1.97 1.87 1.92 1.99 2.02 2.07 2.05 1.99 2.05 2.08 1.98 1.79 1.65 1.60 1.61 1.67 1.69 1.80 1.91 1.88 1.84 1.80 1.96 2.16 2.35 2.56 2.80 2.82 2.80 2.81 2.78 2.84 2.90 2.86 2.78 2.80 2.73 2.55 2.47 2.37 2.26
2.00 2.09 2.24 2.23 2.19 2.14 2.30 2.36 2.34 2.29 2.22 2.16 2.10 1.97 1.83 1.85 1.84 1.78 1.79 1.85 1.81 1.76 1.71 1.76 1.80 1.81 1.95 2.16 2.46 2.74 2.78 2.85 2.89 2.85 2.76 2.74 2.67 2.60 2.54 2.52 2.39 2.23 2.15 2.11
2.10 2.08 2.22 2.16 2.21 2.23 2.37 2.53 2.58 2.56 2.46 2.28 2.10 1.96 1.77 1.80 2.01 2.05 2.05 2.09 1.96 1.80 1.75 1.75 1.71 1.65 1.70 1.83 2.04 2.37 2.54 2.49 2.46 2.47 2.44 2.44 2.37 2.28 2.20 2.14 2.18 2.21 2.11 2.01
1.99 2.06 2.06 2.13 2.15 2.11 2.16 2.29 2.42 2.44 2.38 2.23 2.05 1.96 1.80 1.77 1.84 1.90 2.01 2.06 2.10 1.99 1.84 1.74 1.76 1.73 1.63 1.74 1.89 1.98 2.07 2.20 2.10 1.99 2.00 2.03 2.05 2.06 2.01 2.02 2.10 2.22 2.18 1.98
2.05 2.15 2.12 2.14 2.13 2.06 1.96 2.03 2.15 2.19 2.17 2.13 1.99 1.83 1.72 1.72 1.85 1.91 1.96 1.89 1.80 1.78 1.69 1.62 1.62 1.63 1.59 1.73 1.80 1.74 1.67 1.70 1.75 1.60 1.64 1.79 1.88 1.91 1.94 2.02 2.08 2.09 2.00 1.85
1.84 1.91 1.97 2.00 1.92 1.95 1.94 1.95 2.00 1.92 1.98 1.93 1.80 1.71 1.70 1.85 2.03 2.06 1.91 1.74 1.67 1.66 1.61 1.49 1.37 1.28 1.32 1.39 1.41 1.38 1.30 1.29 1.32 1.32 1.44 1.56 1.61 1.67 1.77 1.85 1.90 1.91 1.79 1.65
1.73 1.63 1.63 1.65 1.55 1.66 1.81 1.81 1.87 1.85 1.89 1.83 1.74 1.77 1.80 1.88 1.94 1.91 1.73 1.68 1.69 1.64 1.53 1.41 1.38 1.15 1.11 1.11 1.17 1.15 1.17 1.24 1.29 1.31 1.40 1.44 1.44 1.49 1.65 1.75 1.78 1.77 1.68 1.60
1.63 1.50 1.44 1.47 1.41 1.45 1.57 1.57 1.56 1.60 1.63 1.67 1.82 1.86 1.78 1.75 1.68 1.65 1.62 1.62 1.58 1.46 1.35 1.29 1.21 1.18 1.19 1.17 1.20 1.15 1.17 1.20 1.24 1.21 1.21 1.27 1.33 1.38 1.44 1.48 1.52 1.55 1.53 1.48
1.42 1.34 1.33 1.42 1.46 1.39 1.41 1.40 1.42 1.42 1.46 1.55 1.72 1.79 1.72 1.65 1.58 1.64 1.76 1.72 1.53 1.32 1.26 1.32 1.21 1.17 1.15 1.20 1.17 1.10 1.14 1.19 1.23 1.32 1.35 1.37 1.38 1.40 1.41 1.38 1.38 1.40 1.42 1.46
1.49 1.35 1.27 1.26 1.35 1.38 1.30 1.25 1.23 1.22 1.28 1.37 1.38 1.47 1.64 1.75 1.67 1.67 1.71 1.72 1.56 1.54 1.30 1.21 1.17 1.20 1.22 1.19 1.14 1.22 1.26 1.33 1.41 1.48 1.52 1.54 1.58 1.57 1.52 1.47 1.47 1.43 1.47 1.52
1.60 1.49 1.43 1.40 1.43 1.49 1.35 1.24 1.17 1.18 1.25 1.28 1.26 1.36 1.53 1.67 1.69 1.69 1.62 1.46 1.34 1.46 1.32 1.23 1.29 1.27 1.24 1.16 1.25 1.38 1.38 1.41 1.46 1.50 1.55 1.59 1.65 1.65 1.64 1.62 1.65 1.63 1.63 1.68
1.70 1.53 1.45 1.38 1.34 1.40 1.40 1.29 1.20 1.17 1.16 1.19 1.21 1.29 1.45 1.54 1.53 1.42 1.35 1.32 1.25 1.26 1.18 1.27 1.32 1.28 1.23 1.18 1.32 1.39 1.40 1.46 1.50 1.51 1.51 1.56 1.59 1.57 1.63 1.68 1.69 1.67 1.68 1.69
1.79 1.63 1.50 1.41 1.40 1.35 1.34 1.30 1.22 1.10 1.04 1.07 1.04 1.11 1.20 1.33 1.43 1.35 1.27 1.19 1.16 1.13 1.14 1.25 1.29 1.34 1.27 1.27 1.31 1.34 1.39 1.54 1.61 1.56 1.52 1.57 1.59 1.60 1.64 1.64 1.58 1.55 1.58 1.62
1.88 1.78 1.68 1.53 1.37 1.28 1.27 1.27 1.28 1.22 1.16 1.12 1.07 1.10 1.16 1.20 1.22 1.28 1.32 1.25 1.19 1.19 1.19 1.23 1.24 1.27 1.24 1.29 1.37 1.39 1.39 1.49 1.56 1.55 1.53 1.54 1.58 1.60 1.55 1.50 1.45 1.44 1.47 1.47
1.79 1.75 1.69 1.59 1.46 1.31 1.26 1.28 1.31 1.30 1.28 1.30 1.28 1.25 1.32 1.31 1.29 1.31 1.25 1.18 1.14 1.14 1.19 1.22 1.20 1.18 1.14 1.11 1.13 1.17 1.22 1.25 1.29 1.39 1.47 1.49 1.45 1.42 1.37 1.34 1.33 1.32 1.32 1.29